Regional Weather Roundup
Issued by NWS

Home | Current Version | Previous Version | Graphics & Text | Print | Product List | Glossary Off
Versions: 1 2 3 4 5 6 7 8 9 10 11 12 13 14 15 16 17 18 19 20 21 22 23 24 25 26 27 28 29 30 31 32 33 34 35 36 37 38 39 40 41 42 43 44 45 46 47 48 49 50

000
ASUS43 KDMX 280208
RWRIA

WEATHER ROUNDUP FOR IOWA
NATIONAL WEATHER SERVICE DES MOINES IA
900 PM CDT TUE SEP 27 2016

NOTE: "FAIR" INDICATES FEW OR NO CLOUDS BELOW 12,000 FEET WITH NO
SIGNIFICANT WEATHER AND/OR OBSTRUCTIONS TO VISIBILITY.

* - THESE STATIONS ARE NOT NWS STATIONS...THUS NOT UNDER NWS
QUALITY CONTROL.  THEY ALSO DO NOT REPORT WEATHER SUCH
AS PRECIPITATION OR FOG.

IAZ001>003-012>014-020>022-031>034-043>046-280300-
   NORTHWEST IOWA

CITY           SKY/WX    TMP DP  RH WIND       PRES   REMARKS
CARROLL *      CLEAR     57  46  67 W8        29.83S
CHEROKEE *     CLEAR     58  46  63 N3        29.85R
DENISON *      CLEAR     57  46  67 CALM      29.84R
LE MARS *      CLEAR     59  48  67 CALM      29.87R
ORANGE CITY *  CLEAR     61  46  59 N5        29.87R
SHELDON *      CLEAR     55  45  67 NW6       29.85S
SIOUX CITY     CLEAR     62  48  60 N3        29.86R
SPENCER        CLOUDY    58  44  60 NW10      29.85R
STORM LAKE *   CLEAR     57  45  62 N6        29.85R
$$

IAZ055>058-069>071-079>083-090>094-280300-
   SOUTHWEST IOWA

CITY           SKY/WX    TMP DP  RH WIND       PRES   REMARKS
ATLANTIC *     CLEAR     59  48  67 CALM      29.85S
AUDUBON *      CLEAR     55  48  76 CALM      29.86S
CLARINDA *       N/A     55  54  94 MISG      29.87S
COUNCIL BLFS * CLEAR     66  46  48 CALM      29.86S
CRESTON *      CLEAR     59  46  63 W5        29.86S
HARLAN  *      CLEAR     55  48  76 CALM      29.89R
LAMONI         CLEAR     62  48  60 W7        29.85R
RED OAK *      CLEAR     57  50  77 CALM      29.86R
SHENANDOAH *   CLEAR     57  52  82 CALM      29.87R
$$

IAZ047>049-059>061-072>074-084-280300-
   CENTRAL IOWA

CITY           SKY/WX    TMP DP  RH WIND       PRES   REMARKS
AMES           PTCLDY    62  48  60 NW6       29.81R
ANKENY *         N/A    N/A N/A N/A MISG        N/A
BOONE *        PTCLDY    63  45  51 NW7       29.81R
CHARITON *       N/A     59  46  63 W7        29.83R
DES MOINES     PTCLDY    64  46  52 W5        29.82R
GRINNELL*      CLOUDY    61  46  57 W5        29.81R
KNOXVILLE *    PTCLDY    61  45  55 W7        29.80S
MARSHALLTOWN   CLOUDY    60  46  59 NW5       29.79R
NEWTON *       MOCLDY    63  45  51 W6        29.80R
PELLA *        PTCLDY    63  49  60 W5        29.82R
PERRY *          N/A     58  45  61 W6        29.83R
$$

IAZ004>006-015-016-023>025-035-036-280300-
   NORTH CENTRAL IOWA

CITY           SKY/WX    TMP DP  RH WIND       PRES   REMARKS
ALGONA *       CLOUDY    59  36  41 N5        29.84R
CLARION *      PTCLDY    59  39  47 N5        29.83R
ESTHERVILLE    CLOUDY    57  36  45 N7        29.85R
FORT DODGE *   CLOUDY    63  39  42 N5        29.83R
MASON CITY     CLOUDY    58  38  47 N13       29.84R
FOREST CITY *  CLOUDY    59  36  41 N14       29.84R
WEBSTER CITY * CLOUDY    61  45  55 NW8       29.80R
IOWA FALLS *     N/A     62  37  40 N6        29.82R
$$

IAZ007>011-017>019-026>030-037>042-050>054-066-280300-
   NORTHEAST IOWA

CITY           SKY/WX    TMP DP  RH WIND       PRES   REMARKS
CEDAR RAPIDS   CLOUDY    60  43  53 NW6       29.77S
CHARLES CITY * CLOUDY    59  36  41 N9G17     29.81R
CLINTON *      CLOUDY    59  39  47 NW3       29.78R
DECORAH *      CLOUDY    52  46  82 N14       29.83R
DUBUQUE        CLOUDY    56  40  55 N6        29.78S
MONTICELLO *   PTCLDY    55  45  67 CALM      29.77S
OELWEIN *      CLOUDY    59  37  44 NW8       29.81R
WATERLOO       CLOUDY    59  37  44 N7        29.79R
$$

IAZ064-065-067-068-078-280300-
   EAST CENTRAL IOWA

CITY           SKY/WX    TMP DP  RH WIND       PRES   REMARKS
DAVENPORT      CLOUDY    56  42  59 N6        29.78S
IOWA CITY      CLOUDY    61  44  53 W5        29.79S
MT. PLEASANT * CLOUDY    61  48  63 SW5       29.80S
MUSCATINE *    CLOUDY    63  45  51 SW6       29.78S
QUAD CITIES    PTCLDY    61  43  51 W3        29.77R
$$

IAZ062-063-075>077-085>089-095>099-280300-
   SOUTHEAST IOWA

CITY           SKY/WX    TMP DP  RH WIND       PRES   REMARKS
BURLINGTON     PTCLDY    62  45  53 SW6       29.80R
FAIRFIELD *    CLOUDY    63  43  48 SW6       29.80S
FORT MADISON * PTCLDY    64  43  45 SW3       29.82S
KEOKUK *       CLOUDY    61  46  59 SW6       29.81R
OSKALOOSA *      N/A     60  44  56 W7        29.81S
CENTERVILLE *    N/A     59  45  58 CALM      29.85R
OTTUMWA        CLOUDY   N/A N/A N/A W6        29.80S
WASHINGTON *     N/A    N/A N/A N/A MISG        N/A
$$

ABBREVIATIONS USED IN REMARKS
   TC - TEMPERATURES IN CELSIUS
  WCI - WIND CHILL INDEX
   HX - HEAT INDEX
  VSB - VISIBILITY
$$





USA.gov is the U.S. government's official web portal to all federal, state and local government web resources and services.